CAT701 EKBI-GCLA

Flight info

Callsign CAT701
Flight time N/A
Altitude 36000
Route ASKOV DCT IPSUB P174 KUBAT N872 MEDIL DCT CMB DCT KIHVI UN872 ERIGA UZ218 FUJTI DCT DELOG DCT NUBLO DCT ARDID DCT ABRAT DCT LIGRA DCT BEXAL UN866 KONBA
Aircraft B738/M-SDE2E3FGHIRWXY/LB1

Departure

Time N/A
Airport Billund Airport (EKBI)

Arrival

Time 2026-04-29 16:55
Airport La Palma Airport (GCLA)
Time Latitude Longitude Altitude Speed Heading
2026-04-29 14:53 38.90269 -8.64772 35867 ft 414 kts 223°
2026-04-29 14:53 38.88078 -8.67099 35877 ft 413 kts 223°
2026-04-29 14:54 38.83649 -8.71796 35882 ft 413 kts 223°
2026-04-29 14:54 38.79226 -8.76479 35873 ft 412 kts 223°
2026-04-29 14:55 38.74799 -8.81159 35884 ft 411 kts 223°
2026-04-29 14:55 38.70382 -8.85819 35879 ft 411 kts 224°
2026-04-29 14:56 38.65974 -8.90464 35878 ft 410 kts 224°
2026-04-29 14:56 38.61569 -8.95097 35886 ft 409 kts 224°
2026-04-29 14:57 38.57173 -8.99714 35883 ft 409 kts 224°
2026-04-29 14:57 38.52809 -9.04289 35885 ft 408 kts 224°
2026-04-29 14:58 38.48418 -9.08885 35887 ft 408 kts 224°
2026-04-29 14:58 38.44035 -9.13466 35892 ft 407 kts 224°
2026-04-29 14:59 38.39643 -9.18048 35889 ft 407 kts 224°
2026-04-29 14:59 38.35257 -9.22616 35896 ft 407 kts 224°
2026-04-29 15:00 38.30875 -9.27174 35893 ft 406 kts 224°
2026-04-29 15:00 38.26522 -9.31694 35892 ft 406 kts 224°
2026-04-29 15:01 38.22133 -9.36244 35893 ft 406 kts 224°
2026-04-29 15:01 38.17750 -9.40781 35893 ft 406 kts 224°
2026-04-29 15:02 38.13360 -9.45318 35896 ft 407 kts 224°
2026-04-29 15:02 38.08968 -9.49850 35896 ft 407 kts 224°
2026-04-29 15:03 38.04574 -9.54379 35899 ft 407 kts 224°
2026-04-29 15:03 38.00193 -9.58884 35904 ft 408 kts 224°
2026-04-29 15:04 37.95687 -9.63274 35903 ft 410 kts 222°
2026-04-29 15:04 37.91086 -9.67554 35898 ft 410 kts 222°
2026-04-29 15:05 37.86490 -9.71835 35900 ft 410 kts 222°
2026-04-29 15:05 37.81895 -9.76137 35908 ft 410 kts 222°
2026-04-29 15:06 37.77309 -9.80439 35908 ft 411 kts 222°
2026-04-29 15:06 37.72739 -9.84721 35910 ft 411 kts 222°
2026-04-29 15:07 37.68144 -9.89021 35913 ft 411 kts 222°
2026-04-29 15:07 37.63545 -9.93317 35906 ft 411 kts 222°
2026-04-29 15:08 37.58945 -9.97608 35908 ft 411 kts 222°
2026-04-29 15:08 37.54339 -10.01897 35911 ft 411 kts 222°
2026-04-29 15:09 37.49736 -10.06177 35910 ft 411 kts 222°
2026-04-29 15:09 37.45118 -10.10464 35909 ft 411 kts 221°
2026-04-29 15:10 37.40542 -10.14706 35910 ft 411 kts 221°
2026-04-29 15:10 37.35928 -10.18975 35914 ft 411 kts 221°
2026-04-29 15:11 37.31318 -10.23235 35915 ft 411 kts 221°
2026-04-29 15:11 37.26705 -10.27491 35915 ft 411 kts 221°
2026-04-29 15:12 37.22087 -10.31745 35919 ft 412 kts 221°
2026-04-29 15:12 37.17467 -10.35994 35920 ft 412 kts 221°
2026-04-29 15:13 37.12844 -10.40239 35923 ft 412 kts 221°
2026-04-29 15:13 37.08215 -10.44483 35923 ft 412 kts 221°
2026-04-29 15:14 37.03614 -10.48695 35916 ft 412 kts 221°
2026-04-29 15:14 36.98982 -10.52929 35915 ft 413 kts 221°
2026-04-29 15:15 36.94341 -10.57164 35928 ft 413 kts 221°
2026-04-29 15:15 36.89697 -10.61396 35931 ft 413 kts 221°
2026-04-29 15:16 36.85051 -10.65623 35928 ft 413 kts 221°
2026-04-29 15:16 36.80396 -10.69852 35928 ft 414 kts 221°
2026-04-29 15:17 36.75740 -10.74075 35928 ft 414 kts 221°
2026-04-29 15:17 36.71082 -10.78293 35928 ft 414 kts 221°
2026-04-29 15:18 36.66420 -10.82509 35929 ft 414 kts 221°
2026-04-29 15:18 36.61781 -10.86697 35930 ft 414 kts 221°
2026-04-29 15:19 36.57115 -10.90903 35932 ft 414 kts 221°
2026-04-29 15:19 36.52442 -10.95110 35931 ft 414 kts 221°
2026-04-29 15:20 36.47775 -10.99304 35932 ft 414 kts 221°
2026-04-29 15:20 36.43095 -11.03504 35933 ft 414 kts 221°
2026-04-29 15:21 36.38422 -11.07691 35934 ft 414 kts 221°
2026-04-29 15:21 36.33741 -11.11879 35939 ft 414 kts 220°
2026-04-29 15:22 36.29057 -11.16063 35942 ft 415 kts 220°
2026-04-29 15:22 36.24403 -11.20215 35943 ft 415 kts 220°
2026-04-29 15:23 36.19717 -11.24389 35942 ft 415 kts 220°
2026-04-29 15:23 36.15026 -11.28560 35943 ft 415 kts 220°
2026-04-29 15:24 36.10327 -11.32734 35940 ft 415 kts 220°
2026-04-29 15:24 36.05629 -11.36900 35940 ft 416 kts 220°
2026-04-29 15:25 36.00921 -11.41070 35945 ft 416 kts 220°
2026-04-29 15:25 35.96212 -11.45232 35947 ft 416 kts 220°
2026-04-29 15:26 35.91513 -11.49366 35948 ft 417 kts 220°
2026-04-29 15:26 35.86785 -11.53517 35946 ft 417 kts 220°
2026-04-29 15:27 35.82049 -11.57670 35945 ft 417 kts 219°
2026-04-29 15:27 35.77312 -11.61819 35946 ft 417 kts 219°
2026-04-29 15:28 35.72587 -11.65953 35950 ft 417 kts 219°
2026-04-29 15:28 35.67859 -11.70083 35949 ft 416 kts 219°
2026-04-29 15:29 35.63168 -11.74175 35955 ft 416 kts 219°
2026-04-29 15:30 35.53703 -11.82413 35954 ft 416 kts 219°
2026-04-29 15:30 35.48973 -11.86520 35952 ft 417 kts 219°
2026-04-29 15:31 35.44265 -11.90603 35958 ft 417 kts 219°
2026-04-29 15:31 35.39524 -11.94708 35953 ft 417 kts 219°
2026-04-29 15:32 35.34769 -11.98819 35956 ft 418 kts 219°
2026-04-29 15:32 35.30021 -12.02918 35958 ft 418 kts 219°
2026-04-29 15:33 35.25262 -12.07021 35959 ft 419 kts 219°
2026-04-29 15:33 35.20498 -12.11121 35962 ft 419 kts 219°
2026-04-29 15:34 35.15724 -12.15224 35961 ft 419 kts 219°
2026-04-29 15:34 35.10978 -12.19298 35958 ft 419 kts 219°
2026-04-29 15:35 35.06201 -12.23392 35961 ft 420 kts 219°
2026-04-29 15:35 35.02194 -12.26821 35963 ft 420 kts 218°
2026-04-29 15:36 34.97410 -12.30910 35965 ft 420 kts 218°
2026-04-29 15:36 34.92660 -12.34965 35964 ft 420 kts 218°
2026-04-29 15:37 34.87868 -12.39048 35966 ft 420 kts 218°
2026-04-29 15:37 34.83076 -12.43127 35965 ft 420 kts 218°
2026-04-29 15:38 34.78290 -12.47193 35962 ft 419 kts 218°
2026-04-29 15:38 34.73500 -12.51258 35958 ft 419 kts 218°
2026-04-29 15:39 34.68714 -12.55314 35961 ft 419 kts 218°
2026-04-29 15:39 34.63962 -12.59335 35966 ft 419 kts 218°
2026-04-29 15:40 34.59178 -12.63377 35962 ft 419 kts 218°
2026-04-29 15:40 34.54394 -12.67414 35967 ft 419 kts 218°
2026-04-29 15:41 34.49606 -12.71448 35965 ft 418 kts 218°
2026-04-29 15:41 34.44817 -12.75477 35974 ft 418 kts 218°
2026-04-29 15:42 34.40038 -12.79493 35974 ft 418 kts 218°
2026-04-29 15:42 34.35257 -12.83505 35971 ft 418 kts 218°
2026-04-29 15:43 34.30482 -12.87507 35966 ft 418 kts 218°
2026-04-29 15:43 34.25701 -12.91507 35974 ft 418 kts 218°
2026-04-29 15:44 34.20930 -12.95524 35973 ft 417 kts 218°
2026-04-29 15:44 34.16198 -12.99518 35978 ft 417 kts 218°
2026-04-29 15:45 34.11438 -13.03530 35970 ft 417 kts 218°
2026-04-29 15:45 34.06674 -13.07537 35975 ft 417 kts 218°
2026-04-29 15:46 34.01917 -13.11532 35970 ft 417 kts 217°
2026-04-29 15:46 33.97149 -13.15530 35972 ft 417 kts 217°
2026-04-29 15:47 33.92382 -13.19521 35974 ft 417 kts 217°
2026-04-29 15:47 33.87621 -13.23502 35972 ft 417 kts 217°
2026-04-29 15:48 33.82864 -13.27475 35974 ft 416 kts 217°
2026-04-29 15:48 33.78095 -13.31452 35970 ft 416 kts 217°
2026-04-29 15:49 33.73364 -13.35391 35975 ft 416 kts 217°
2026-04-29 15:49 33.68580 -13.39370 35978 ft 416 kts 217°
2026-04-29 15:50 33.63855 -13.43294 35974 ft 415 kts 217°
2026-04-29 15:50 33.59103 -13.47235 35975 ft 415 kts 217°
2026-04-29 15:51 33.54352 -13.51170 35976 ft 415 kts 217°
2026-04-29 15:51 33.49605 -13.55097 35976 ft 415 kts 217°
2026-04-29 15:52 33.44855 -13.59021 35976 ft 414 kts 217°
2026-04-29 15:52 33.40104 -13.62939 35979 ft 414 kts 216°
2026-04-29 15:53 33.35352 -13.66854 35980 ft 414 kts 216°
2026-04-29 15:53 33.30629 -13.70740 35976 ft 414 kts 216°
2026-04-29 15:54 33.25882 -13.74640 35976 ft 414 kts 216°
2026-04-29 15:54 33.21131 -13.78540 35979 ft 414 kts 216°
2026-04-29 15:55 33.16378 -13.82435 35980 ft 414 kts 216°
2026-04-29 15:55 33.11623 -13.86314 35980 ft 414 kts 216°
2026-04-29 15:56 33.06858 -13.90175 35979 ft 414 kts 216°
2026-04-29 15:56 33.02101 -13.94027 35979 ft 413 kts 216°
2026-04-29 15:57 32.97340 -13.97879 35978 ft 413 kts 216°
2026-04-29 15:57 32.92612 -14.01701 35977 ft 413 kts 216°
2026-04-29 15:58 32.87859 -14.05538 35979 ft 413 kts 216°
2026-04-29 15:58 32.83106 -14.09371 35981 ft 412 kts 215°
2026-04-29 15:59 32.78359 -14.13194 35978 ft 412 kts 215°
2026-04-29 15:59 32.73612 -14.17011 35981 ft 412 kts 215°
2026-04-29 16:00 32.68869 -14.20821 35980 ft 411 kts 215°
2026-04-29 16:00 32.64133 -14.24620 35981 ft 411 kts 215°
2026-04-29 16:01 32.59425 -14.28391 35984 ft 410 kts 215°
2026-04-29 16:01 32.54691 -14.32179 35979 ft 410 kts 215°
2026-04-29 16:02 32.49962 -14.35957 35989 ft 411 kts 215°
2026-04-29 16:02 32.45187 -14.39768 36221 ft 414 kts 215°
2026-04-29 16:02 32.42804 -14.41668 36493 ft 412 kts 215°
2026-04-29 16:03 32.40435 -14.43555 36764 ft 409 kts 215°
2026-04-29 16:03 32.38074 -14.45434 36958 ft 409 kts 215°
2026-04-29 16:03 32.35705 -14.47319 36964 ft 411 kts 215°
2026-04-29 16:04 32.30979 -14.51076 36976 ft 411 kts 215°
2026-04-29 16:04 32.26250 -14.54830 36973 ft 408 kts 214°
2026-04-29 16:05 32.21542 -14.58563 36983 ft 407 kts 214°
2026-04-29 16:05 32.16827 -14.62297 36987 ft 408 kts 214°
2026-04-29 16:06 32.12112 -14.66027 36980 ft 408 kts 214°
2026-04-29 16:06 32.07405 -14.69744 36980 ft 409 kts 214°
2026-04-29 16:07 32.02673 -14.73477 36986 ft 410 kts 214°
2026-04-29 16:07 31.97925 -14.77218 36985 ft 410 kts 214°
2026-04-29 16:08 31.93175 -14.80955 36988 ft 411 kts 214°
2026-04-29 16:08 31.88416 -14.84696 36985 ft 411 kts 214°
2026-04-29 16:09 31.83649 -14.88438 36987 ft 412 kts 214°
2026-04-29 16:09 31.78876 -14.92179 36983 ft 413 kts 214°
2026-04-29 16:10 31.74097 -14.95921 36985 ft 413 kts 214°
2026-04-29 16:10 31.69342 -14.99639 36984 ft 413 kts 214°
2026-04-29 16:11 31.64551 -15.03380 36987 ft 414 kts 214°
2026-04-29 16:11 31.59754 -15.07122 36983 ft 414 kts 214°
2026-04-29 16:12 31.54949 -15.10865 36986 ft 414 kts 214°
2026-04-29 16:12 31.50142 -15.14606 36987 ft 415 kts 214°
2026-04-29 16:13 31.45336 -15.18340 36986 ft 415 kts 214°
2026-04-29 16:13 31.40517 -15.22081 36980 ft 415 kts 214°
2026-04-29 16:14 31.35701 -15.25815 36983 ft 415 kts 214°
2026-04-29 16:14 31.30911 -15.29524 36986 ft 416 kts 214°
2026-04-29 16:15 31.25929 -15.32995 36990 ft 417 kts 210°
2026-04-29 16:15 31.20811 -15.36188 36984 ft 417 kts 210°
2026-04-29 16:16 31.15690 -15.39379 36988 ft 417 kts 210°
2026-04-29 16:16 31.10573 -15.42609 36986 ft 418 kts 210°
2026-04-29 16:17 31.05462 -15.45855 36985 ft 418 kts 210°
2026-04-29 16:17 31.00342 -15.49108 36982 ft 419 kts 210°
2026-04-29 16:18 30.95223 -15.52357 36986 ft 419 kts 210°
2026-04-29 16:18 30.90096 -15.55607 36983 ft 420 kts 211°
2026-04-29 16:19 30.84989 -15.58839 36984 ft 420 kts 211°
2026-04-29 16:19 30.79840 -15.62094 36982 ft 421 kts 211°
2026-04-29 16:20 30.74690 -15.65346 36987 ft 421 kts 211°
2026-04-29 16:20 30.69527 -15.68602 36987 ft 422 kts 211°
2026-04-29 16:21 30.64358 -15.71858 36987 ft 422 kts 211°
2026-04-29 16:21 30.59184 -15.75112 36985 ft 423 kts 211°
2026-04-29 16:22 30.54034 -15.78348 36986 ft 423 kts 211°
2026-04-29 16:22 30.48844 -15.81605 36984 ft 424 kts 211°
2026-04-29 16:23 30.44532 -15.84308 36985 ft 424 kts 211°
2026-04-29 16:23 30.39344 -15.87556 36981 ft 424 kts 211°
2026-04-29 16:24 30.34151 -15.90804 36982 ft 424 kts 211°
2026-04-29 16:24 30.28964 -15.94043 36982 ft 424 kts 211°
2026-04-29 16:25 30.23771 -15.97283 36977 ft 424 kts 211°
2026-04-29 16:25 30.18578 -16.00520 36974 ft 424 kts 211°
2026-04-29 16:26 30.13426 -16.03725 36970 ft 420 kts 211°
2026-04-29 16:26 30.08311 -16.06903 36971 ft 415 kts 212°
2026-04-29 16:27 30.03209 -16.10072 36587 ft 415 kts 212°
2026-04-29 16:27 30.00686 -16.11636 36213 ft 410 kts 212°
2026-04-29 16:27 29.98185 -16.13186 35852 ft 406 kts 212°
2026-04-29 16:27 29.95706 -16.14721 35450 ft 403 kts 212°
2026-04-29 16:28 29.93251 -16.16242 35128 ft 398 kts 210°
2026-04-29 16:28 29.90824 -16.17744 34713 ft 395 kts 210°
2026-04-29 16:28 29.88415 -16.19236 34343 ft 391 kts 210°
2026-04-29 16:28 29.86054 -16.20696 33958 ft 389 kts 210°
2026-04-29 16:29 29.83682 -16.22161 33540 ft 386 kts 210°
2026-04-29 16:29 29.81296 -16.23635 33138 ft 382 kts 210°
2026-04-29 16:29 29.78970 -16.25071 32772 ft 378 kts 210°
2026-04-29 16:29 29.76688 -16.26479 32409 ft 375 kts 210°
2026-04-29 16:30 29.74403 -16.27889 32031 ft 372 kts 210°
2026-04-29 16:30 29.72131 -16.29289 31668 ft 369 kts 210°
2026-04-29 16:30 29.69875 -16.30679 31311 ft 366 kts 210°
2026-04-29 16:30 29.67639 -16.32056 30958 ft 363 kts 210°
2026-04-29 16:31 29.65419 -16.33423 30609 ft 360 kts 210°
2026-04-29 16:31 29.63214 -16.34780 30269 ft 358 kts 210°
2026-04-29 16:31 29.61024 -16.36126 29893 ft 355 kts 210°
2026-04-29 16:31 29.58872 -16.37496 29504 ft 351 kts 216°
2026-04-29 16:32 29.56979 -16.39130 29365 ft 340 kts 220°
2026-04-29 16:32 29.55137 -16.40876 29032 ft 336 kts 221°
2026-04-29 16:32 29.53362 -16.42594 28642 ft 333 kts 221°
2026-04-29 16:32 29.51603 -16.44298 28326 ft 329 kts 221°
2026-04-29 16:33 29.48131 -16.47629 27616 ft 325 kts 221°
2026-04-29 16:33 29.46373 -16.49302 27270 ft 323 kts 221°
2026-04-29 16:33 29.44665 -16.50920 26938 ft 322 kts 221°
2026-04-29 16:34 29.42932 -16.52558 26612 ft 325 kts 221°
2026-04-29 16:34 29.41156 -16.54236 26287 ft 336 kts 221°
2026-04-29 16:34 29.39332 -16.55957 25925 ft 340 kts 221°
2026-04-29 16:34 29.37508 -16.57673 25565 ft 338 kts 221°
2026-04-29 16:35 29.35695 -16.59377 25197 ft 337 kts 221°
2026-04-29 16:35 29.33887 -16.61076 24846 ft 335 kts 221°
2026-04-29 16:35 29.32092 -16.62761 24491 ft 333 kts 221°
2026-04-29 16:35 29.30302 -16.64441 24145 ft 332 kts 221°
2026-04-29 16:36 29.28518 -16.66114 23792 ft 331 kts 221°
2026-04-29 16:36 29.26740 -16.67782 23410 ft 330 kts 221°
2026-04-29 16:36 29.24970 -16.69441 23020 ft 328 kts 221°
2026-04-29 16:36 29.23205 -16.71094 22653 ft 326 kts 221°
2026-04-29 16:37 29.21454 -16.72734 22289 ft 323 kts 221°
2026-04-29 16:37 29.19715 -16.74362 21953 ft 321 kts 221°
2026-04-29 16:37 29.18017 -16.75951 21618 ft 319 kts 221°
2026-04-29 16:37 29.16861 -16.77032 21400 ft 317 kts 221°
2026-04-29 16:38 29.14609 -16.79137 20948 ft 314 kts 221°
2026-04-29 16:38 29.12923 -16.80713 20634 ft 312 kts 221°
2026-04-29 16:38 29.11226 -16.82297 20303 ft 310 kts 221°
2026-04-29 16:38 29.09582 -16.83833 19985 ft 309 kts 221°
2026-04-29 16:39 29.07921 -16.85383 19662 ft 307 kts 221°
2026-04-29 16:39 29.06269 -16.86924 19338 ft 305 kts 221°
2026-04-29 16:39 29.04628 -16.88454 19026 ft 304 kts 221°
2026-04-29 16:39 29.03187 -16.89797 18745 ft 303 kts 221°
2026-04-29 16:40 29.01577 -16.91297 18406 ft 291 kts 221°
2026-04-29 16:40 29.00048 -16.92719 18072 ft 278 kts 221°
2026-04-29 16:40 28.98579 -16.94085 17756 ft 268 kts 221°
2026-04-29 16:40 28.97158 -16.95407 17467 ft 260 kts 221°
2026-04-29 16:41 28.95752 -16.96715 17208 ft 264 kts 221°
2026-04-29 16:41 28.94285 -16.98084 16951 ft 282 kts 221°
2026-04-29 16:41 28.92719 -16.99544 16642 ft 294 kts 221°
2026-04-29 16:41 28.91161 -17.00991 16283 ft 282 kts 221°
2026-04-29 16:42 28.89673 -17.02370 15967 ft 270 kts 221°
2026-04-29 16:42 28.88240 -17.03698 15678 ft 260 kts 221°
2026-04-29 16:42 28.86852 -17.04985 15407 ft 256 kts 221°
2026-04-29 16:42 28.85460 -17.06278 15164 ft 264 kts 221°
2026-04-29 16:43 28.83979 -17.07656 14891 ft 285 kts 221°
2026-04-29 16:43 28.82409 -17.09115 14550 ft 291 kts 221°
2026-04-29 16:43 28.80871 -17.10538 14220 ft 279 kts 221°
2026-04-29 16:43 28.79393 -17.11904 13915 ft 268 kts 221°
2026-04-29 16:44 28.77983 -17.13208 13616 ft 260 kts 221°
2026-04-29 16:44 28.76587 -17.14500 13325 ft 259 kts 221°
2026-04-29 16:44 28.75159 -17.15824 13071 ft 273 kts 221°
2026-04-29 16:44 28.73635 -17.17238 12768 ft 287 kts 221°
2026-04-29 16:45 28.72103 -17.18654 12413 ft 278 kts 221°
2026-04-29 16:45 28.70634 -17.20009 12098 ft 265 kts 221°
2026-04-29 16:45 28.69223 -17.21310 11815 ft 257 kts 221°
2026-04-29 16:45 28.67852 -17.22576 11531 ft 252 kts 221°
2026-04-29 16:46 28.66472 -17.23852 11275 ft 261 kts 221°
2026-04-29 16:46 28.65020 -17.25225 11003 ft 279 kts 227°
2026-04-29 16:46 28.63973 -17.27064 10692 ft 279 kts 250°
2026-04-29 16:46 28.63392 -17.29168 10354 ft 279 kts 255°
2026-04-29 16:47 28.62886 -17.31293 9969 ft 277 kts 255°
2026-04-29 16:47 28.62394 -17.33407 9517 ft 275 kts 256°
2026-04-29 16:47 28.61907 -17.35518 9007 ft 276 kts 256°
2026-04-29 16:47 28.61430 -17.37600 8499 ft 276 kts 256°
2026-04-29 16:48 28.60951 -17.39699 7999 ft 271 kts 256°
2026-04-29 16:48 28.60484 -17.41748 7492 ft 264 kts 256°
2026-04-29 16:48 28.60029 -17.43748 7019 ft 259 kts 256°
2026-04-29 16:48 28.59581 -17.45720 6542 ft 255 kts 256°
2026-04-29 16:49 28.59140 -17.47660 6048 ft 251 kts 256°
2026-04-29 16:49 28.58711 -17.49570 5587 ft 246 kts 255°
2026-04-29 16:49 28.58301 -17.51448 5131 ft 242 kts 255°
2026-04-29 16:49 28.57912 -17.53297 4693 ft 239 kts 255°
2026-04-29 16:50 28.57540 -17.55113 4310 ft 232 kts 255°
2026-04-29 16:50 28.57186 -17.56878 3977 ft 225 kts 256°
2026-04-29 16:50 28.56846 -17.58581 3680 ft 215 kts 256°
2026-04-29 16:50 28.56522 -17.60210 3348 ft 206 kts 256°
2026-04-29 16:51 28.56333 -17.61768 3040 ft 198 kts 265°
2026-04-29 16:51 28.56267 -17.63298 2714 ft 190 kts 265°
2026-04-29 16:51 28.56213 -17.64767 2452 ft 182 kts 266°
2026-04-29 16:51 28.56159 -17.66191 2177 ft 178 kts 265°
2026-04-29 16:52 28.56107 -17.67566 1914 ft 169 kts 265°
2026-04-29 16:52 28.56058 -17.68839 1716 ft 155 kts 265°
2026-04-29 16:52 28.56012 -17.70064 1454 ft 154 kts 265°
2026-04-29 16:52 28.55976 -17.71275 1191 ft 151 kts 266°
2026-04-29 16:53 28.55938 -17.72480 1130 ft 157 kts 265°
2026-04-29 16:53 28.55960 -17.73715 1258 ft 161 kts 278°
2026-04-29 16:53 28.56483 -17.74847 928 ft 166 kts 314°
2026-04-29 16:53 28.57458 -17.75403 779 ft 154 kts 348°
2026-04-29 16:54 28.58534 -17.75503 629 ft 157 kts
2026-04-29 16:54 28.59603 -17.75501 503 ft 155 kts 358°
2026-04-29 16:54 28.60680 -17.75522 353 ft 157 kts
2026-04-29 16:54 28.61772 -17.75544 138 ft 155 kts
2026-04-29 16:55 28.62765 -17.75563 93 ft 118 kts 359°
2026-04-29 16:55 28.63363 -17.75574 76 ft 55 kts 359°
2026-04-29 16:55 28.63578 -17.75579 77 ft 19 kts 359°
2026-04-29 16:55 28.63603 -17.75548 73 ft 5 kts 148°
2026-04-29 16:56 28.63536 -17.75571 74 ft 18 kts 191°
2026-04-29 16:56 28.63375 -17.75574 76 ft 25 kts 177°
2026-04-29 16:56 28.63210 -17.75570 83 ft 23 kts 179°
2026-04-29 16:56 28.63052 -17.75567 84 ft 22 kts 179°
2026-04-29 16:57 28.62903 -17.75563 89 ft 22 kts 179°
2026-04-29 16:57 28.62754 -17.75561 93 ft 21 kts 178°
2026-04-29 16:57 28.62623 -17.75496 95 ft 21 kts 140°
2026-04-29 16:57 28.62491 -17.75450 99 ft 20 kts 178°
2026-04-29 16:58 28.62353 -17.75443 101 ft 20 kts 179°
2026-04-29 16:58 28.62219 -17.75440 104 ft 19 kts 179°
2026-04-29 16:58 28.62158 -17.75404 105 ft 7 kts 83°
2026-04-29 16:58 28.62160 -17.75358 104 ft 2 kts 89°
2026-04-29 16:59 28.62160 -17.75354 104 ft 0 kts 89°